Location: Austin
(30.3000°N, 97.7500°W)
Time: 04:17:20
(UTC-05:00)

Cosmos 2061 Rocket - Pass Details

Date: 10 May 2025
Orbit: 966 x 1011 km, 82.9° (Epoch: 11 May)

Event Time Altitude Azimuth Distance (km) Brightness Sun altitude
Rises 04:05:37 0° 353° (N) 3,746 7.6 -28.7°
Reaches altitude 10° 04:08:09 10° 353° (N) 2,791 6.8 -28.3°
Maximum altitude 04:14:35 83° 266° (W) 1,016 3.9 -27.4°
Enters shadow 04:15:36 65° 192° (SSW) 1,094 3.9 -27.2°
